Retour au catalogue

COSMOS 1253

ActifMilitaireLEO
NORAD 12323·PAYLOAD·🇷🇺 Russia

Lancé Mar 6, 1981 depuis Plesetsk Cosmodrome

Loading…

Prochains Passages (prochaines 24 heures)

TLE

FraisSource: Space-Track

Époque: Sep 14, 2026, 15:21 UTC

1 12323U 81022D   26257.64000955 -.00000015  00000-0  29380-5 0  9999
2 12323  74.0324  24.1149 0018419 278.4290  92.8501 12.45841957 70467

Suivez COSMOS 1253 en temps réel avec AllMySat

Download on the App Store